Home > Weather > Liverpool > Past weeks

Flag for United Kingdom Past Weather in Liverpool, England, United Kingdom — Yesterday and Last 2 Weeks

Now
50 °F

Clear.


Feels Like: 49 °F
Forecast: 61 / 65 °F
Wind: 3 mph from East

Location: Liverpool Airport

Current Time: Aug 27, 2016 at 5:56:29 AM

Latest Report: Aug 27, 2016 at 5:20 AM


Visibility: 10 mi

Pressure: 30.09 "Hg

Humidity: 100%

Dew Point: 50 °F

Location of LiverpoolLocation

Past Weather in Liverpool — Graph

°F

Liverpool Temperature Yesterday

Maximum temperature yesterday: 68 °F (at 2:50 PM)
Minimum temperature yesterday: 55 °F (at 5:20 AM)
Average temperature yesterday: 62 °F

High & Low Weather Summary for the Past Weeks

 TemperatureHumidityPressure
High79 °F (Aug 23, 4:50 PM)100% (Aug 15, 7:20 AM)30.33 "Hg (Aug 15, 7:20 AM)
Low50 °F (Aug 15, 5:20 AM)47% (Aug 15, 3:20 PM)29.42 "Hg (Aug 20, 6:20 AM)
Average63 °F78%30.01 "Hg
* Reported Aug 12 4:20 AM — Aug 27 4:20 AM, Liverpool, Weather by CustomWeather, © 2016

Note: Actual official high and low records may vary slightly from our data, if they occured in-between our weather recording intervals... More about our weather records

Advertising

Liverpool Weather History for the Previous 24 Hours

Scroll right to see more
 ConditionsComfort  
Time TempWeatherWind HumidityBarometerVisibility
4:20 AM
Sat, Aug 27
50 °FClear.2 mph94%30.09 "Hg10 mi
3:50 AM54 °FPassing clouds.5 mph94%30.12 "HgN/A
3:20 AM54 °FClear.2 mph94%30.12 "Hg10 mi
2:50 AM55 °FPassing clouds.3 mph88%30.12 "HgN/A
2:20 AM55 °FClear.3 mph88%30.12 "Hg10 mi
1:50 AM55 °FClear.3 mph88%30.12 "Hg10 mi
1:20 AM55 °FClear.3 mph88%30.12 "Hg10 mi
12:50 AM55 °FClear.3 mph88%30.12 "Hg10 mi
12:20 AM57 °FClear.2 mph82%30.12 "Hg10 mi
11:50 PM
Fri, Aug 26
57 °FClear.5 mph82%30.12 "Hg10 mi
11:20 PM59 °FClear.3 mph82%30.12 "Hg10 mi
10:50 PM57 °FClear.3 mph82%30.12 "Hg10 mi
10:20 PM57 °FClear.6 mph82%30.12 "Hg10 mi
9:50 PM61 °FClear.8 mph72%30.12 "Hg10 mi
9:20 PM61 °FClear.8 mph72%30.12 "Hg10 mi
8:50 PM61 °FPassing clouds.9 mph72%30.09 "HgN/A
8:20 PM63 °FPassing clouds.8 mph64%30.09 "HgN/A
7:50 PM63 °FSunny.7 mph64%30.09 "Hg10 mi
7:20 PM64 °FPassing clouds.9 mph60%30.07 "HgN/A
6:50 PM66 °FPassing clouds.12 mph56%30.07 "HgN/A
6:20 PM66 °FPassing clouds.14 mph56%30.07 "HgN/A
5:50 PM68 °FPassing clouds.13 mph49%30.07 "HgN/A
5:20 PM68 °FPassing clouds.13 mph49%30.07 "HgN/A
4:50 PM68 °FScattered clouds.12 mph53%30.07 "HgN/A
4:20 PM68 °FScattered clouds.13 mph56%30.07 "HgN/A
3:20 PM68 °FScattered clouds.13 mph56%30.07 "HgN/A
2:50 PM68 °FScattered clouds.12 mph56%30.07 "HgN/A
2:20 PM66 °FScattered clouds.13 mph60%30.07 "HgN/A
1:50 PM66 °FScattered clouds.10 mph60%30.07 "HgN/A
12:50 PM66 °FScattered clouds.12 mph60%30.04 "HgN/A
12:20 PM66 °FPassing clouds.17 mph56%30.04 "HgN/A
11:50 AM64 °FScattered clouds.17 mph56%30.04 "HgN/A
11:20 AM64 °FScattered clouds.15 mph60%30.04 "HgN/A
10:50 AM64 °FPassing clouds.13 mph64%30.04 "HgN/A
10:20 AM64 °FPassing clouds.13 mph64%30.04 "HgN/A
9:50 AM63 °FPassing clouds.5 mph77%30.01 "HgN/A
9:20 AM61 °FPassing clouds.9 mph83%30.01 "HgN/A
8:50 AM61 °FPassing clouds.6 mph83%30.01 "HgN/A
8:20 AM59 °FPassing clouds.6 mph88%30.01 "HgN/A
7:50 AM57 °FPassing clouds.5 mph88%30.01 "HgN/A
7:20 AM59 °FPassing clouds.8 mph82%29.98 "HgN/A
6:50 AM57 °FPassing clouds.7 mph82%29.98 "HgN/A
6:20 AM57 °FClear.7 mph82%29.98 "Hg10 mi
5:50 AM57 °FClear.9 mph82%29.98 "Hg10 mi
5:20 AM55 °FClear.7 mph82%29.95 "Hg10 mi
Weather by CustomWeather, © 2016

See weather overviewHow to use our weather pages